www.pogodaiklimat.ru

Погода и климат >> Архив погоды >> Россия >> Якутия >> Батамай


ПОГОДА в Батамае

  • Прогноз погоды в Батамае
  • Монитор погоды в Батамае
  • Климат города

АРХИВ ПОГОДЫ в Батамае

Время (UTC), дата Ветер
(напр.,м/с)
 
Видим.   Явления Облачность Т
(С)
Тd
(С)
f
(%)
Тe
(С)
Тes
(С)
Комфортность P
(гПа)
Po
(гПа)
Тmin
(С)
Tmax
(С)
R
(мм)
R24
(мм)
S
(см)
06 23.04 ЮЗ 2 50 км 1/0
[Ci fib]
+7.9 -0.9 54 +6 +13 1021.1 1011.4
09 23.04 З 4 50 км 4/0
[Ci fib]
+10.1 -1.1 46 +8 +9 1020.7 1011.0
12 23.04 З 2 50 км 10/0
[Cs]
+3.2 -0.9 74 0 0 1021.2 1011.3 +10.7
15 23.04 ЮЗ 2 50 км 10/0
[Cs]
+0.3 -2.0 85 -3 -3 1021.5 1011.4
18 23.04 З 2 50 км 10/0
[Cs]
-1.6 -3.2 89 -6 -6 1021.8 1011.7
21 23.04 ЮЗ 1 50 км 10/0
[Cs]
-1.5 -4.4 81 -4 -3 1022.5 1012.4
00 24.04 ЮЗ 3 50 км 10/0
[Cs]
+0.8 -4.1 70 -3 0 1022.6 1012.5 -1.6 6
03 24.04 ЮЗ 2 50 км 10/0
[Ac trans Cs]
+4.1 -2.7 61 +2 +9 1022.6 1012.7
06 24.04 ЮЗ 3 50 км 10/0
[Ac trans Cs]
+5.2 -1.0 64 +2 +6 1022.5 1012.6
09 24.04 ЮЗ 3 50 км 10/3 600 м
[Cb cap Ac trans Cs]
+4.9 -3.0 57 +2 +2 1022.4 1012.5
12 24.04 ЮЗ 2 50 км 10/0
[Ac trans Cs]
+2.2 -4.9 59 -1 -1 1022.8 1012.7 +5.5
15 24.04 ЮЗ 2 50 км 6/0
[Ci fib]
-0.6 -4.1 77 -4 -4 1022.6 1012.5
18 24.04 ЮЗ 5 50 км 1/0
[Ci fib]
-0.9 -4.8 75 -7 -7 1022.4 1012.3
21 24.04 ЮЗ 2 50 км 9/0
[Ac trans Ci fib]
-1.0 -6.0 69 -4 -4 1021.6 1011.5
00 25.04 ЮЗ 3 50 км 3/0
[Ac trans Ci fib]
+1.2 -3.7 70 -3 +1 1021.2 1011.1 -2.7 2
03 25.04 ЮЗ 3 50 км 10/3 600 м
[Cu hum Ac trans Ci fib]
+4.9 -2.7 58 +2 +5 1020.4 1010.5
06 25.04 ЮЗ 3 50 км 10/6 600 м
[Cb cap Ac trans Ci fib]
+4.8 -3.2 56 +2 +3 1019.1 1009.2
09 25.04 ЮЗ 2 50 км 10/3 600 м
[Cb cap Ac trans Ci fib]
+5.0 -3.3 55 +3 +3 1018.2 1008.3
12 25.04 ЮЗ 1 50 км 4/0
[Ac trans]
+0.6 -2.3 81 -1 -1 1017.9 1007.8 +6.4
15 25.04 ЮЗ 2 50 км ясно -1.4 -3.1 88 -5 -5 1016.9 1006.8
18 25.04 СЗ 1 50 км ясно -4.8 -5.1 98 -7 -7 1015.8 1005.5
21 25.04 ЮЗ 1 50 км ясно -4.5 -5.4 93 -7 -6 1014.6 1004.4
00 26.04 Ю 1 50 км ясно -2.8 -5.1 84 -5 +2 1014.1 1003.9 -4.8 1
03 26.04 ЮВ 2 50 км 4/3 600 м
[Cb cap Ci fib]
+5.0 -4.0 52 +3 +9 1010.2 1000.4
06 26.04 Ю 3 50 км 8/3 600 м
[Cb cap Ci fib]
+6.5 -6.1 40 +4 +8 1007.9 998.1
09 26.04 ЮВ 1 50 км 10/3 600 м
[Cb cap Cs]
+5.9 -6.3 41 +6 +7 1006.5 996.7
12 26.04 СВ 1 50 км 10/3 600 м
[Cb cap Cs]
+1.4 -9.1 45 0 0 1006.3 996.3 +6.9
15 26.04 СВ 2 50 км 5/0
[Ac trans Ci fib]
-1.2 -5.9 70 -5 -5 1005.2 995.2
18 26.04 С 2 50 км 4/0
[Ac trans]
-3.6 -7.6 74 -8 -8 1004.4 994.3
21 26.04 СВ 2 50 км 9/0
[Ac trans Ci fib]
-1.2 -5.9 70 -5 -4 1003.7 993.8
00 27.04 ЮЗ 2 50 км 9/0
[Ac trans Ci fib]
+2.7 -3.9 62 0 +4 1002.6 992.9 -4.0 0
03 27.04 ЮЗ 2 50 км 10/6 600 м
[Cb cap Ac trans Ci fib]
+5.4 -2.4 57 +3 +5 1002.0 992.3
06 27.04 В 1 50 км 9/3 600 м
[Cb cap Ac trans]
+7.2 -4.1 44 +7 +10 1001.8 992.1
09 27.04 ЮЗ 1 50 км 10/4 600 м
[Cb cap Ac trans Ci fib]
+6.7 -4.9 43 +6 +7 1001.4 991.7
12 27.04 З 1 50 км 10/0
[Ac trans Cs]
+3.1 -1.7 71 +2 +2 1002.1 992.4 +7.7
15 27.04 ЮЗ 1 50 км 10/0
[Ac trans Cs]
+1.3 -0.4 88 -1 -1 1002.1 992.2
18 27.04 СЗ 1 50 км 10/0
[Ac trans Cs]
+0.4 -0.6 93 -2 -2 1002.1 992.2
21 27.04 СЗ 1 50 км 10/6 600 м
[Cb cap Ac trans Ci fib]
-0.1 -5.3 68 -2 -2 1001.6 991.7
00 28.04 ЮЗ 2 50 км 10/6 600 м
[Cb cap Ac trans]
+1.4 +0.6 94 -2 -1 1001.0 991.1 -0.1 2
03 28.04 ЮЗ 3 50 км 4/3 600 м
[Cb cap Ac trans Ci fib]
+5.4 -3.1 54 +3 +8 999.0 989.3
06 28.04 Ю 4 50 км 8/3 600 м
[Cb cap Ac trans Ci fib]
+6.5 -0.9 59 +3 +5 997.4 987.7
09 28.04 ЮЗ 1 50 км 6/3 600 м
[Cb cap Ac trans]
+7.3 -1.4 54 +7 +8 995.7 986.0
12 28.04 З 1 50 км 10/3 600 м
[Cb cap Ac trans Ci fib]
+3.0 -1.1 74 +2 +2 997.0 987.3 +0.3
15 28.04 С 1 50 км 10/0
[Ac trans Ci fib]
-0.5 -2.9 84 -3 -3 997.5 987.6
18 28.04 СЗ 1 50 км 10/0
[Ac trans Ci fib]
-2.8 -4.8 86 -5 -5 998.8 988.7
21 28.04 СЗ 1 50 км 8/3 1000 м
[Sc Ac trans]
-1.2 -5.5 73 -3 -3 1000.1 990.2
00 29.04 штиль 0 50 км 8/4 600 м
[Cb cap Ac trans Ci fib]
+2.6 -4.0 62 +2 +5 1001.4 991.7 -3.3 0
03 29.04 ЮЗ 2 50 км 8/5 600 м
[Cb cap Ac trans]
+6.1 -1.7 57 +4 +7 1001.6 991.9
06 29.04 С 1 50 км 8/3 600 м
[Cb cap Ac trans]
+8.7 -4.5 39 +9 +12 1001.9 992.4
09 29.04 З 4 50 км 10/5 600 м
[Cb cap Ac trans Ci fib]
+8.7 -3.7 41 +6 +7 1003.0 993.5
12 29.04 З 5 50 км 10/3 1000 м
[Sc Ac trans Ci fib]
+2.0 -2.3 73 -3 -3 1005.3 995.3 +10.7
15 29.04 З 4 50 км 10/0
[Ac trans Cs]
-0.4 -4.2 75 -6 -6 1006.4 996.4
18 29.04 ЮЗ 4 50 км 3/0
[Ac trans Ci fib]
-2.3 -4.5 85 -8 -8 1007.0 997.0
21 29.04 ЮЗ 4 50 км 1/0
[Ci fib]
-2.1 -5.3 79 -8 -7 1007.3 997.3
00 30.04 ЮЗ 3 50 км 1/0
[Ci fib]
-1.0 -4.9 75 -6 -1 1007.4 997.4 -3.0

 

Местоположение метеостанции Батамай (Якутия, Россия): широта 63.52 долгота 129.40 высота над уровнем моря 79 м.

В архиве по умолчанию представлена погода в Батамае за последнюю неделю. Архивные данные за месяц целиком и за предыдущие месяцы, начиная с января 2011 года, Вы можете получить, выбрав интересующий диапазон дат из раскрывающегося списка и нажав кнопку "Ввод!".

Внимание! Время в таблицах - всемирное. Для получения местного времени необходимо прибавить поправку, которая в Батамае равна 9 ч.

Смотрите также архив погоды в соседних городах и на ближайших метеорологических станциях:

Погода в Сеген-Кюели (Якутия, Россия) (69 км)
Погода в Намцах (Якутия, Россия) (90 км)
Погода в Сангаре (Якутия, Россия) (109 км)
Погода в Верхоянском Перевозе (Якутия, Россия) (131 км)
Погода в Якутске (Якутия, Россия) (169 км)
Погода в Сого-Хае (Якутия, Россия) (169 км)
Погода в Бердигестяхе (Якутия, Россия) (185 км)
Погода в Себян-Кюеле (Якутия, Россия) (200 км)
Погода в Покровске (Якутия, Россия) (227 км)
Погода в Хатырык-Хомо (Якутия, Россия) (231 км)

Пояснения к столбцам:

Ветер - указаны скорость ветра в м/с - средняя за 10 мин, порывы в срок и между сроками (в фигурных скобках) и направление, откуда дует ветер: С - северный, СВ - северо-восточный, В - восточный, ЮВ - юго-восточный, Ю - южный, ЮЗ - юго-западный, З - западный, СЗ - северо-западный.
Видимость - горизонтальная дальность видимости в метрах или километрах. При видимости от 1 до 10 км при отсутствии осадков обычно наблюдается дымка, при ухудшении видимости до 1 км и менее - туман. В сухую погоду видимость может ухудшаться дымом, пылью или мглою.
Явления - указаны атмосферные явления, наблюдавшиеся в срок или в последний час перед сроком; фигурными скобками обозначены явления, наблюдавшиеся между сроками (за 1-3 часа до срока); квадратными скобками обозначены град или гололедные отложения с указанием их диаметра в мм.
Облачность - указаны через наклонную черту общая и нижняя облачность в баллах и высота нижней границы облаков в метрах; квадратными скобками обозначены формы облаков: Ci - перистые, Cs - перисто-слоистые, Cc - перисто-кучевые, Ac - высококучевые, As - высокослоистые, Sc - слоисто-кучевые, Ns - слоисто-дождевые, Cu - кучевые, Cb - кучево-дождевые. Подробнее классификацию облаков см. в Атласе облаков (PDF).
T - Температура воздуха - температура, измеренная на высоте 2 м над землей.
Td - Температура точки росы - температура, при понижении до которой содержащийся в воздухе водяной пар достигнет насыщения.
f - Относительная влажность воздуха - влажноcть воздуха, измеренная на высоте 2 м над землей.
Te - Эффективная температура - температура, которую ощущает одетый по сезону человек в тени. Характеристика душности погоды. При расчете учитывается влияние влажности воздуха и скорости ветра на теплоощущения человека.
Tes - Эффективная температура на солнце - температура, которую ощущает человек, с поправкой на солнечный нагрев. Характеристика знойности погоды. Зависит от высоты солнца над горизонтом, облачности и скорости ветра. Ночью, в пасмурную погоду, а также при ветре 12 м/с и более поправка равна нулю.
P - Атмосферное давление - приведенное к уровню моря атмосферное давление.
Po - Атмосферное давление - измеренное на уровне метеостанции атмосферное давление.
Tmin - Минимальная температура - минимум температуры воздуха на высоте 2 м над землей.
Tmax - Максимальная температура - максимум температуры воздуха на высоте 2 м над землей.
R - Количество осадков - Количество выпавших осадков за период времени, мм. При наведении курсора мыши на число - период времени, за который выпало указанное количество осадков.
R24 - Количество осадков - Количество выпавших осадков за 24 часа, мм.
S - Снежный покров - Высота снежного покрова, см. При наведении курсора мыши на число - состояние снежного покрова и степень покрытия местности в баллах.